This is the latest recevied weather packets stored in our database for station/object OK2ZAW-19. If no packets are shown the sender has not sent any weather packets the latest 10 day(s).
| Time | Temp. | Humidity | Pressure | Rain* | Wind** | Luminosity | Snow |
|---|---|---|---|---|---|---|---|
| 1777551232 | 13.89° C | 32% | 1028.7 hPa | - | - | 337 W/m² | - |
| 1777550922 | 13.33° C | 33% | 1028.7 hPa | - | - | 337 W/m² | - |
| 1777550611 | 12.78° C | 33% | 1028.6 hPa | - | - | 337 W/m² | - |
| 1777550300 | 12.78° C | 33% | 1028.6 hPa | - | - | 337 W/m² | - |
| 1777549679 | 12.78° C | 33% | 1028.6 hPa | - | - | 337 W/m² | - |
| 1777549368 | 12.78° C | 32% | 1028.8 hPa | - | - | 337 W/m² | - |
| 1777549057 | 12.78° C | 33% | 1028.8 hPa | - | - | 337 W/m² | - |
| 1777548747 | 12.22° C | 33% | 1028.9 hPa | - | - | 337 W/m² | - |
| 1777548436 | 12.22° C | 33% | 1028.9 hPa | - | - | 337 W/m² | - |
| 1777548125 | 11.67° C | 33% | 1029.1 hPa | - | - | 337 W/m² | - |
| 1777547816 | 11.11° C | 34% | 1028.9 hPa | - | - | 337 W/m² | - |
| 1777547504 | 11.67° C | 32% | 1029.1 hPa | - | - | 337 W/m² | - |
| 1777547195 | 11.67° C | 34% | 1029 hPa | - | - | 337 W/m² | - |
| 1777546883 | 11.67° C | 35% | 1029.1 hPa | - | - | 337 W/m² | - |
| 1777546572 | 11.67° C | 34% | 1029.1 hPa | - | - | 337 W/m² | - |
| 1777546262 | 11.67° C | 36% | 1029.2 hPa | - | - | 337 W/m² | - |
| 1777545951 | 11.11° C | 35% | 1029.2 hPa | - | - | 337 W/m² | - |
| 1777545640 | 11.11° C | 35% | 1029.2 hPa | - | - | 337 W/m² | - |
| 1777545330 | 11.11° C | 35% | 1029.4 hPa | - | - | 337 W/m² | - |
| 1777545019 | 11.11° C | 35% | 1029.5 hPa | - | - | 337 W/m² | - |
| 1777544709 | 10.56° C | 36% | 1029.3 hPa | - | - | 337 W/m² | - |
| 1777544088 | 10° C | 39% | 1029.5 hPa | - | - | 337 W/m² | - |
| 1777543777 | 9.44° C | 39% | 1029.5 hPa | - | - | 337 W/m² | - |
| 1777543467 | 8.89° C | 37% | 1029.6 hPa | - | - | 337 W/m² | - |
| 1777542846 | 8.89° C | 39% | 1029.7 hPa | - | - | 337 W/m² | - |
* Rain since midnight (hover to see other rain measurements)
** Current wind speed in m/s (hover to see current wind gust speed)